Year,Month,Day,Hour,Minute,Value (Times are PST for temperature in C)
2015,06,07,00,00,11.20
2015,06,07,00,01,11.20
2015,06,07,00,02,11.10
2015,06,07,00,03,11.10
2015,06,07,00,04,11.10
2015,06,07,00,05,11.10
2015,06,07,00,06,11.10
2015,06,07,00,07,11.00
2015,06,07,00,08,11.00
2015,06,07,00,09,11.00
2015,06,07,00,10,10.90
2015,06,07,00,11,10.90
2015,06,07,00,12,10.90
2015,06,07,00,17,10.80
2015,06,07,00,18,10.80
2015,06,07,00,19,10.80
2015,06,07,00,20,10.80
2015,06,07,00,21,10.70
2015,06,07,00,22,10.70
2015,06,07,00,23,10.70
2015,06,07,00,24,10.70
2015,06,07,00,25,10.70
2015,06,07,00,26,10.70
2015,06,07,00,27,10.60
2015,06,07,00,28,10.60
2015,06,07,00,29,10.60
2015,06,07,00,30,10.60
2015,06,07,00,31,10.60
2015,06,07,00,32,10.60
2015,06,07,00,33,10.60
2015,06,07,00,34,10.60
2015,06,07,00,35,10.50
2015,06,07,00,36,10.50
2015,06,07,00,37,10.50
2015,06,07,00,38,10.50
2015,06,07,00,39,10.50
2015,06,07,00,40,10.50
2015,06,07,00,41,10.50
2015,06,07,00,42,10.50
2015,06,07,00,43,10.50
2015,06,07,00,44,10.50
2015,06,07,00,45,10.50
2015,06,07,00,46,10.50
2015,06,07,00,47,10.50
2015,06,07,00,48,10.50
2015,06,07,00,49,10.40
2015,06,07,00,50,10.40
2015,06,07,00,51,10.40
2015,06,07,00,52,10.40
2015,06,07,00,53,10.40
2015,06,07,00,54,10.40
2015,06,07,00,55,10.40
2015,06,07,00,56,10.40
2015,06,07,00,57,10.40
2015,06,07,00,58,10.40
2015,06,07,00,59,10.40
2015,06,07,01,00,10.30
2015,06,07,01,01,10.30
2015,06,07,01,02,10.30
2015,06,07,01,03,10.30
2015,06,07,01,04,10.30
2015,06,07,01,05,10.40
2015,06,07,01,06,10.40
2015,06,07,01,07,10.40
2015,06,07,01,08,10.30
2015,06,07,01,09,10.30
2015,06,07,01,10,10.30
2015,06,07,01,11,10.30
2015,06,07,01,12,10.30
2015,06,07,01,13,10.30
2015,06,07,01,14,10.30
2015,06,07,01,15,10.30
2015,06,07,01,16,10.30
2015,06,07,01,17,10.30
2015,06,07,01,18,10.30
2015,06,07,01,19,10.20
2015,06,07,01,20,10.20
2015,06,07,01,21,10.20
2015,06,07,01,22,10.20
2015,06,07,01,23,10.20
2015,06,07,01,24,10.10
2015,06,07,01,25,10.10
2015,06,07,01,26,10.10
2015,06,07,01,27,10.10
2015,06,07,01,28,10.10
2015,06,07,01,29,10.10
2015,06,07,01,30,10.10
2015,06,07,01,31,10.10
2015,06,07,01,32,10.10
2015,06,07,01,33,10.20
2015,06,07,01,34,10.20
2015,06,07,01,35,10.20
2015,06,07,01,36,10.20
2015,06,07,01,37,10.20
2015,06,07,01,38,10.10
2015,06,07,01,39,10.10
2015,06,07,01,40,10.10
2015,06,07,01,41,10.10
2015,06,07,01,42,10.10
2015,06,07,01,43,10.10
2015,06,07,01,44,10.20
2015,06,07,01,45,10.20
2015,06,07,01,46,10.20
2015,06,07,01,47,10.20
2015,06,07,01,48,10.30
2015,06,07,01,49,10.30
2015,06,07,01,50,10.30
2015,06,07,01,51,10.30
2015,06,07,01,52,10.30
2015,06,07,01,53,10.30
2015,06,07,01,54,10.30
2015,06,07,01,55,10.30
2015,06,07,01,56,10.30
2015,06,07,01,57,10.30
2015,06,07,01,58,10.30
2015,06,07,01,59,10.30
2015,06,07,02,00,10.30
2015,06,07,02,01,10.30
2015,06,07,02,02,10.30
2015,06,07,02,03,10.30
2015,06,07,02,04,10.30
2015,06,07,02,05,10.20
2015,06,07,02,06,10.20
2015,06,07,02,07,10.30
2015,06,07,02,08,10.30
2015,06,07,02,09,10.20
2015,06,07,02,10,10.20
2015,06,07,02,11,10.20
2015,06,07,02,12,10.20
2015,06,07,02,13,10.20
2015,06,07,02,14,10.20
2015,06,07,02,15,10.20
2015,06,07,02,16,10.20
2015,06,07,02,17,10.20
2015,06,07,02,18,10.20
2015,06,07,02,19,10.10
2015,06,07,02,20,10.10
2015,06,07,02,21,10.10
2015,06,07,02,22,10.10
2015,06,07,02,23,10.10
2015,06,07,02,24,10.00
2015,06,07,02,25,10.00
2015,06,07,02,26,10.00
2015,06,07,02,27,10.00
2015,06,07,02,28,10.00
2015,06,07,02,29,10.00
2015,06,07,02,30,10.00
2015,06,07,02,31,10.00
2015,06,07,02,32,10.00
2015,06,07,02,33,10.00
2015,06,07,02,34,9.90
2015,06,07,02,35,9.90
2015,06,07,02,36,9.90
2015,06,07,02,37,9.90
2015,06,07,02,38,9.90
2015,06,07,02,39,9.80
2015,06,07,02,40,9.80
2015,06,07,02,41,9.80
2015,06,07,02,42,9.80
2015,06,07,02,43,9.80
2015,06,07,02,44,9.80
2015,06,07,02,45,9.80
2015,06,07,02,46,9.80
2015,06,07,02,47,9.80
2015,06,07,02,48,9.80
2015,06,07,02,49,9.80
2015,06,07,02,50,9.80
2015,06,07,02,51,9.80
2015,06,07,02,52,9.80
2015,06,07,02,53,9.80
2015,06,07,02,54,9.80
2015,06,07,02,55,9.80
2015,06,07,02,56,9.80
2015,06,07,02,57,9.80
2015,06,07,02,58,9.70
2015,06,07,02,59,9.70
2015,06,07,03,00,9.70
2015,06,07,03,01,9.70
2015,06,07,03,02,9.70
2015,06,07,03,03,9.70
2015,06,07,03,04,9.70
2015,06,07,03,05,9.70
2015,06,07,03,06,9.70
2015,06,07,03,07,9.70
2015,06,07,03,08,9.70
2015,06,07,03,09,9.70
2015,06,07,03,10,9.70
2015,06,07,03,11,9.70
2015,06,07,03,12,9.70
2015,06,07,03,13,9.70
2015,06,07,03,14,9.70
2015,06,07,03,15,9.70
2015,06,07,03,16,9.70
2015,06,07,03,17,9.70
2015,06,07,03,18,9.70
2015,06,07,03,19,9.70
2015,06,07,03,20,9.70
2015,06,07,03,21,9.70
2015,06,07,03,22,9.70
2015,06,07,03,23,9.70
2015,06,07,03,24,9.70
2015,06,07,03,25,9.70
2015,06,07,03,26,9.60
2015,06,07,03,27,9.60
2015,06,07,03,28,9.60
2015,06,07,03,29,9.60
2015,06,07,03,30,9.60
2015,06,07,03,31,9.60
2015,06,07,03,32,9.60
2015,06,07,03,33,9.60
2015,06,07,03,34,9.60
2015,06,07,03,35,9.60
2015,06,07,03,36,9.60
2015,06,07,03,37,9.60
2015,06,07,03,38,9.60
2015,06,07,03,39,9.60
2015,06,07,03,40,9.50
2015,06,07,03,41,9.50
2015,06,07,03,42,9.50
2015,06,07,03,43,9.50
2015,06,07,03,44,9.50
2015,06,07,03,45,9.50
2015,06,07,03,46,9.40
2015,06,07,03,47,9.40
2015,06,07,03,48,9.40
2015,06,07,03,49,9.40
2015,06,07,03,50,9.40
2015,06,07,03,51,9.40
2015,06,07,03,52,9.40
2015,06,07,03,53,9.40
2015,06,07,03,54,9.40
2015,06,07,03,55,9.40
2015,06,07,03,56,9.40
2015,06,07,03,57,9.40
2015,06,07,03,58,9.50
2015,06,07,03,59,9.50
2015,06,07,04,00,9.50
2015,06,07,04,01,9.40
2015,06,07,04,02,9.40
2015,06,07,04,03,9.40
2015,06,07,04,04,9.40
2015,06,07,04,05,9.40
2015,06,07,04,06,9.40
2015,06,07,04,07,9.40
2015,06,07,04,08,9.40
2015,06,07,04,09,9.40
2015,06,07,04,10,9.40
2015,06,07,04,11,9.40
2015,06,07,04,12,9.40
2015,06,07,04,13,9.40
2015,06,07,04,14,9.40
2015,06,07,04,15,9.40
2015,06,07,04,16,9.40
2015,06,07,04,17,9.30
2015,06,07,04,18,9.30
2015,06,07,04,19,9.40
2015,06,07,04,20,9.40
2015,06,07,04,21,9.40
2015,06,07,04,22,9.40
2015,06,07,04,23,9.40
2015,06,07,04,24,9.40
2015,06,07,04,25,9.40
2015,06,07,04,26,9.40
2015,06,07,04,27,9.40
2015,06,07,04,28,9.40
2015,06,07,04,29,9.40
2015,06,07,04,30,9.40
2015,06,07,04,31,9.40
2015,06,07,04,32,9.40
2015,06,07,04,33,9.40
2015,06,07,04,34,9.30
2015,06,07,04,35,9.30
2015,06,07,04,36,9.30
2015,06,07,04,37,9.30
2015,06,07,04,38,9.30
2015,06,07,04,39,9.30
2015,06,07,04,40,9.20
2015,06,07,04,41,9.20
2015,06,07,04,42,9.20
2015,06,07,04,43,9.20
2015,06,07,04,44,9.20
2015,06,07,04,45,9.20
2015,06,07,04,46,9.20
2015,06,07,04,47,9.20
2015,06,07,04,48,9.20
2015,06,07,04,49,9.20
2015,06,07,04,50,9.20
2015,06,07,04,51,9.20
2015,06,07,04,52,9.20
2015,06,07,04,53,9.20
2015,06,07,04,54,9.20
2015,06,07,04,55,9.30
2015,06,07,04,56,9.30
2015,06,07,04,57,9.30
2015,06,07,04,58,9.30
2015,06,07,04,59,9.30
2015,06,07,05,00,9.30
2015,06,07,05,01,9.30
2015,06,07,05,02,9.30
2015,06,07,05,03,9.30
2015,06,07,05,04,9.30
2015,06,07,05,05,9.30
2015,06,07,05,06,9.20
2015,06,07,05,07,9.20
2015,06,07,05,08,9.20
2015,06,07,05,09,9.20
2015,06,07,05,10,9.20
2015,06,07,05,11,9.20
2015,06,07,05,12,9.20
2015,06,07,05,13,9.20
2015,06,07,05,14,9.20
2015,06,07,05,15,9.20
2015,06,07,05,16,9.20
2015,06,07,05,17,9.20
2015,06,07,05,18,9.20
2015,06,07,05,19,9.20
2015,06,07,05,20,9.20
2015,06,07,05,21,9.20
2015,06,07,05,22,9.20
2015,06,07,05,23,9.20
2015,06,07,05,24,9.20
2015,06,07,05,25,9.20
2015,06,07,05,26,9.20
2015,06,07,05,27,9.20
2015,06,07,05,28,9.20
2015,06,07,05,29,9.20
2015,06,07,05,30,9.20
2015,06,07,05,31,9.20
2015,06,07,05,32,9.20
2015,06,07,05,33,9.20
2015,06,07,05,34,9.20
2015,06,07,05,35,9.20
2015,06,07,05,36,9.20
2015,06,07,05,37,9.10
2015,06,07,05,38,9.10
2015,06,07,05,39,9.10
2015,06,07,05,40,9.10
2015,06,07,05,41,9.10
2015,06,07,05,42,9.10
2015,06,07,05,43,9.10
2015,06,07,05,44,9.10
2015,06,07,05,45,9.10
2015,06,07,05,46,9.10
2015,06,07,05,47,9.10
2015,06,07,05,48,9.10
2015,06,07,05,49,9.10
2015,06,07,05,50,9.10
2015,06,07,05,51,9.10
2015,06,07,05,52,9.10
2015,06,07,05,53,9.10
2015,06,07,05,54,9.10
2015,06,07,05,55,9.10
2015,06,07,05,56,9.10
2015,06,07,05,57,9.10
2015,06,07,05,58,9.20
2015,06,07,05,59,9.20
2015,06,07,06,00,9.20
2015,06,07,06,01,9.20
2015,06,07,06,02,9.20
2015,06,07,06,03,9.20
2015,06,07,06,04,9.20
2015,06,07,06,05,9.20
2015,06,07,06,06,9.20
2015,06,07,06,07,9.20
2015,06,07,06,08,9.20
2015,06,07,06,09,9.20
2015,06,07,06,10,9.20
2015,06,07,06,11,9.20
2015,06,07,06,12,9.20
2015,06,07,06,13,9.20
2015,06,07,06,14,9.30
2015,06,07,06,15,9.30
2015,06,07,06,16,9.30
2015,06,07,06,17,9.30
2015,06,07,06,18,9.30
2015,06,07,06,19,9.30
2015,06,07,06,20,9.30
2015,06,07,06,21,9.30
2015,06,07,06,22,9.40
2015,06,07,06,23,9.40
2015,06,07,06,24,9.40
2015,06,07,06,25,9.40
2015,06,07,06,26,9.40
2015,06,07,06,27,9.40
2015,06,07,06,28,9.40
2015,06,07,06,29,9.50
2015,06,07,06,30,9.50
2015,06,07,06,31,9.60
2015,06,07,06,32,9.70
2015,06,07,06,33,9.70
2015,06,07,06,34,9.80
2015,06,07,06,35,9.90
2015,06,07,06,36,9.90
2015,06,07,06,37,10.00
2015,06,07,06,38,10.00
2015,06,07,06,39,10.00
2015,06,07,06,40,10.10
2015,06,07,06,41,10.10
2015,06,07,06,42,10.20
2015,06,07,06,43,10.20
2015,06,07,06,44,10.30
2015,06,07,06,45,10.40
2015,06,07,06,46,10.40
2015,06,07,06,47,10.40
2015,06,07,06,48,10.50
2015,06,07,06,49,10.60
2015,06,07,06,50,10.70
2015,06,07,06,51,10.90
2015,06,07,06,52,11.10
2015,06,07,06,53,11.30
2015,06,07,06,54,11.30
2015,06,07,06,55,11.40
2015,06,07,06,56,11.50
2015,06,07,06,57,11.50
2015,06,07,06,58,11.60
2015,06,07,06,59,11.70
2015,06,07,07,00,11.80
2015,06,07,07,01,11.90
2015,06,07,07,02,12.00
2015,06,07,07,03,12.10
2015,06,07,07,04,12.20
2015,06,07,07,05,12.30
2015,06,07,07,06,12.50
2015,06,07,07,07,12.60
2015,06,07,07,08,12.70
2015,06,07,07,09,12.80
2015,06,07,07,10,12.90
2015,06,07,07,11,13.00
2015,06,07,07,12,13.10
2015,06,07,07,13,13.10
2015,06,07,07,14,13.20
2015,06,07,07,15,13.20
2015,06,07,07,16,13.30
2015,06,07,07,17,13.30
2015,06,07,07,18,13.40
2015,06,07,07,19,13.40
2015,06,07,07,20,13.40
2015,06,07,07,21,13.50
2015,06,07,07,22,13.60
2015,06,07,07,23,13.70
2015,06,07,07,24,13.80
2015,06,07,07,25,13.80
2015,06,07,07,26,13.90
2015,06,07,07,27,14.00
2015,06,07,07,28,14.10
2015,06,07,07,29,14.20
2015,06,07,07,30,14.20
2015,06,07,07,31,14.30
2015,06,07,07,32,14.40
2015,06,07,07,33,14.50
2015,06,07,07,34,14.60
2015,06,07,07,35,14.70
2015,06,07,07,36,14.80
2015,06,07,07,37,14.80
2015,06,07,07,38,14.90
2015,06,07,07,39,15.00
2015,06,07,07,40,15.00
2015,06,07,07,41,15.10
2015,06,07,07,42,15.20
2015,06,07,07,43,15.20
2015,06,07,07,44,15.20
2015,06,07,07,45,15.20
2015,06,07,07,46,15.10
2015,06,07,07,47,15.10
2015,06,07,07,48,15.10
2015,06,07,07,49,15.10
2015,06,07,07,50,15.00
2015,06,07,07,51,15.00
2015,06,07,07,52,15.00
2015,06,07,07,53,15.00
2015,06,07,07,54,15.00
2015,06,07,07,55,15.00
2015,06,07,07,56,15.10
2015,06,07,07,57,15.10
2015,06,07,07,58,15.20
2015,06,07,07,59,15.20
2015,06,07,08,00,15.20
2015,06,07,08,01,15.30
2015,06,07,08,02,15.30
2015,06,07,08,03,15.30
2015,06,07,08,04,15.30
2015,06,07,08,05,15.40
2015,06,07,08,06,15.40
2015,06,07,08,07,15.40
2015,06,07,08,08,15.40
2015,06,07,08,09,15.30
2015,06,07,08,10,15.30
2015,06,07,08,11,15.30
2015,06,07,08,12,15.20
2015,06,07,08,13,15.10
2015,06,07,08,14,15.00
2015,06,07,08,15,15.00
2015,06,07,08,16,14.90
2015,06,07,08,17,14.90
2015,06,07,08,18,14.90
2015,06,07,08,19,14.90
2015,06,07,08,20,14.90
2015,06,07,08,21,15.00
2015,06,07,08,22,15.00
2015,06,07,08,23,15.10
2015,06,07,08,24,15.10
2015,06,07,08,25,15.20
2015,06,07,08,26,15.30
2015,06,07,08,27,15.30
2015,06,07,08,28,15.30
2015,06,07,08,29,15.30
2015,06,07,08,30,15.30
2015,06,07,08,31,15.30
2015,06,07,08,32,15.30
2015,06,07,08,33,15.30
2015,06,07,08,34,15.30
2015,06,07,08,35,15.20
2015,06,07,08,36,15.10
2015,06,07,08,37,15.10
2015,06,07,08,38,15.00
2015,06,07,08,39,15.00
2015,06,07,08,40,14.90
2015,06,07,08,41,14.90
2015,06,07,08,42,14.90
2015,06,07,08,43,14.80
2015,06,07,08,44,14.80
2015,06,07,08,45,14.90
2015,06,07,08,46,14.90
2015,06,07,08,47,14.90
2015,06,07,08,48,15.00
2015,06,07,08,49,15.00
2015,06,07,08,50,15.10
2015,06,07,08,51,15.10
2015,06,07,08,52,15.20
2015,06,07,08,53,15.30
2015,06,07,08,54,15.30
2015,06,07,08,55,15.30
2015,06,07,08,56,15.40
2015,06,07,08,57,15.40
2015,06,07,08,58,15.50
2015,06,07,08,59,15.60
2015,06,07,09,00,15.70
2015,06,07,09,01,15.70
2015,06,07,09,02,15.80
2015,06,07,09,03,15.90
2015,06,07,09,04,15.90
2015,06,07,09,05,16.00
2015,06,07,09,06,16.10
2015,06,07,09,07,16.10
2015,06,07,09,08,16.20
2015,06,07,09,09,16.20
2015,06,07,09,10,16.20
2015,06,07,09,11,16.30
2015,06,07,09,12,16.30
2015,06,07,09,13,16.40
2015,06,07,09,14,16.40
2015,06,07,09,15,16.50
2015,06,07,09,16,16.50
2015,06,07,09,17,16.60
2015,06,07,09,18,16.60
2015,06,07,09,19,16.60
2015,06,07,09,20,16.60
2015,06,07,09,21,16.50
2015,06,07,09,22,16.40
2015,06,07,09,23,16.40
2015,06,07,09,24,16.40
2015,06,07,09,25,16.40
2015,06,07,09,26,16.40
2015,06,07,09,27,16.50
2015,06,07,09,28,16.50
2015,06,07,09,29,16.60
2015,06,07,09,30,16.70
2015,06,07,09,31,16.70
2015,06,07,09,32,16.80
2015,06,07,09,33,16.80
2015,06,07,09,34,16.90
2015,06,07,09,35,16.80
2015,06,07,09,36,16.80
2015,06,07,09,37,16.80
2015,06,07,09,38,16.80
2015,06,07,09,39,16.90
2015,06,07,09,40,17.00
2015,06,07,09,41,17.10
2015,06,07,09,42,17.00
2015,06,07,09,43,16.90
2015,06,07,09,44,16.70
2015,06,07,09,45,16.50
2015,06,07,09,46,16.40
2015,06,07,09,47,16.30
2015,06,07,09,48,16.30
2015,06,07,09,49,16.40
2015,06,07,09,50,16.50
2015,06,07,09,51,16.60
2015,06,07,09,52,16.80
2015,06,07,09,53,17.00
2015,06,07,09,54,17.20
2015,06,07,09,55,17.40
2015,06,07,09,56,17.70
2015,06,07,09,57,17.90
2015,06,07,09,58,18.00
2015,06,07,09,59,18.10
2015,06,07,10,00,18.20
2015,06,07,10,01,18.20
2015,06,07,10,02,18.20
2015,06,07,10,03,18.30
2015,06,07,10,04,18.30
2015,06,07,10,05,18.40
2015,06,07,10,06,18.60
2015,06,07,10,07,18.70
2015,06,07,10,08,18.90
2015,06,07,10,09,19.00
2015,06,07,10,10,19.10
2015,06,07,10,11,19.20
2015,06,07,10,12,19.40
2015,06,07,10,13,19.50
2015,06,07,10,14,19.70
2015,06,07,10,15,19.90
2015,06,07,10,16,20.10
2015,06,07,10,17,20.30
2015,06,07,10,18,20.50
2015,06,07,10,19,20.70
2015,06,07,10,20,20.80
2015,06,07,10,21,20.80
2015,06,07,10,22,20.80
2015,06,07,10,23,20.80
2015,06,07,10,24,20.90
2015,06,07,10,25,21.00
2015,06,07,10,26,21.10
2015,06,07,10,27,21.10
2015,06,07,10,28,21.10
2015,06,07,10,29,21.10
2015,06,07,10,30,21.10
2015,06,07,10,31,21.10
2015,06,07,10,32,21.10
2015,06,07,10,33,21.10
2015,06,07,10,34,21.10
2015,06,07,10,35,21.20
2015,06,07,10,36,21.10
2015,06,07,10,37,21.00
2015,06,07,10,38,21.00
2015,06,07,10,39,20.90
2015,06,07,10,40,20.90
2015,06,07,10,41,20.90
2015,06,07,10,42,20.80
2015,06,07,10,43,20.70
2015,06,07,10,44,20.70
2015,06,07,10,45,20.70
2015,06,07,10,46,20.70
2015,06,07,10,47,20.80
2015,06,07,10,48,20.90
2015,06,07,10,49,21.00
2015,06,07,10,50,21.10
2015,06,07,10,51,21.20
2015,06,07,10,52,21.30
2015,06,07,10,53,21.30
2015,06,07,10,54,21.30
2015,06,07,10,55,21.30
2015,06,07,10,56,21.30
2015,06,07,10,57,21.30
2015,06,07,10,58,21.20
2015,06,07,10,59,21.00
2015,06,07,11,00,20.90
2015,06,07,11,01,20.70
2015,06,07,11,02,20.60
2015,06,07,11,03,20.50
2015,06,07,11,04,20.40
2015,06,07,11,05,20.40
2015,06,07,11,06,20.40
2015,06,07,11,07,20.30
2015,06,07,11,08,20.30
2015,06,07,11,09,20.30
2015,06,07,11,10,20.30
2015,06,07,11,11,20.30
2015,06,07,11,12,20.30
2015,06,07,11,13,20.30
2015,06,07,11,14,20.20
2015,06,07,11,15,20.20
2015,06,07,11,16,20.20
2015,06,07,11,17,20.20
2015,06,07,11,18,20.10
2015,06,07,11,19,20.10
2015,06,07,11,20,20.20
2015,06,07,11,21,20.20
2015,06,07,11,22,20.20
2015,06,07,11,23,20.20
2015,06,07,11,24,20.20
2015,06,07,11,25,20.30
2015,06,07,11,26,20.20
2015,06,07,11,27,20.20
2015,06,07,11,28,20.30
2015,06,07,11,29,20.30
2015,06,07,11,30,20.30
2015,06,07,11,31,20.40
2015,06,07,11,32,20.50
2015,06,07,11,33,20.60
2015,06,07,11,34,20.70
2015,06,07,11,35,20.70
2015,06,07,11,36,20.70
2015,06,07,11,37,20.70
2015,06,07,11,38,20.70
2015,06,07,11,39,20.70
2015,06,07,11,40,20.70
2015,06,07,11,41,20.70
2015,06,07,11,42,20.80
2015,06,07,11,43,20.80
2015,06,07,11,44,20.80
2015,06,07,11,45,20.80
2015,06,07,11,46,20.90
2015,06,07,11,47,21.00
2015,06,07,11,48,21.00
2015,06,07,11,49,21.10
2015,06,07,11,50,21.20
2015,06,07,11,51,21.30
2015,06,07,11,52,21.30
2015,06,07,11,53,21.40
2015,06,07,11,54,21.50
2015,06,07,11,55,21.50
2015,06,07,11,56,21.60
2015,06,07,11,57,21.60
2015,06,07,11,58,21.60
2015,06,07,11,59,21.60
2015,06,07,12,00,21.60
2015,06,07,12,01,21.70
2015,06,07,12,02,21.70
2015,06,07,12,03,21.80
2015,06,07,12,04,21.90
2015,06,07,12,05,21.90
2015,06,07,12,06,21.90
2015,06,07,12,07,22.00
2015,06,07,12,08,22.10
2015,06,07,12,09,22.20
2015,06,07,12,10,22.20
2015,06,07,12,11,22.10
2015,06,07,12,12,22.10
2015,06,07,12,13,22.10
2015,06,07,12,14,22.10
2015,06,07,12,15,22.10
2015,06,07,12,16,22.20
2015,06,07,12,17,22.30
2015,06,07,12,18,22.40
2015,06,07,12,19,22.50
2015,06,07,12,20,22.50
2015,06,07,12,21,22.40
2015,06,07,12,22,22.40
2015,06,07,12,23,22.30
2015,06,07,12,24,22.30
2015,06,07,12,25,22.40
2015,06,07,12,26,22.50
2015,06,07,12,27,22.50
2015,06,07,12,28,22.50
2015,06,07,12,29,22.50
2015,06,07,12,30,22.40
2015,06,07,12,31,22.30
2015,06,07,12,32,22.30
2015,06,07,12,33,22.30
2015,06,07,12,34,22.40
2015,06,07,12,35,22.40
2015,06,07,12,36,22.40
2015,06,07,12,37,22.40
2015,06,07,12,38,22.40
2015,06,07,12,39,22.40
2015,06,07,12,40,22.30
2015,06,07,12,41,22.30
2015,06,07,12,42,22.30
2015,06,07,12,43,22.20
2015,06,07,12,44,22.20
2015,06,07,12,45,22.10
2015,06,07,12,46,22.10
2015,06,07,12,47,22.10
2015,06,07,12,48,22.10
2015,06,07,12,49,22.10
2015,06,07,12,50,22.10
2015,06,07,12,51,22.10
2015,06,07,12,52,22.10
2015,06,07,12,53,22.10
2015,06,07,12,54,22.10
2015,06,07,12,55,22.20
2015,06,07,12,56,22.30
2015,06,07,12,57,22.30
2015,06,07,12,58,22.40
2015,06,07,12,59,22.40
2015,06,07,13,00,22.40
2015,06,07,13,01,22.40
2015,06,07,13,02,22.30
2015,06,07,13,03,22.30
2015,06,07,13,04,22.40
2015,06,07,13,05,22.40
2015,06,07,13,06,22.50
2015,06,07,13,07,22.60
2015,06,07,13,08,22.60
2015,06,07,13,09,22.70
2015,06,07,13,10,22.80
2015,06,07,13,11,22.90
2015,06,07,13,12,22.90
2015,06,07,13,13,22.90
2015,06,07,13,14,22.90
2015,06,07,13,15,22.90
2015,06,07,13,16,22.90
2015,06,07,13,17,22.80
2015,06,07,13,18,22.80
2015,06,07,13,19,22.80
2015,06,07,13,20,22.80
2015,06,07,13,21,22.80
2015,06,07,13,22,22.80
2015,06,07,13,23,22.70
2015,06,07,13,24,22.70
2015,06,07,13,25,22.70
2015,06,07,13,26,22.70
2015,06,07,13,27,22.80
2015,06,07,13,28,22.80
2015,06,07,13,29,22.80
2015,06,07,13,30,22.70
2015,06,07,13,31,22.70
2015,06,07,13,32,22.70
2015,06,07,13,33,22.80
2015,06,07,13,34,22.80
2015,06,07,13,35,22.90
2015,06,07,13,36,23.00
2015,06,07,13,37,23.10
2015,06,07,13,38,23.20
2015,06,07,13,39,23.30
2015,06,07,13,40,23.30
2015,06,07,13,41,23.40
2015,06,07,13,42,23.50
2015,06,07,13,43,23.60
2015,06,07,13,44,23.70
2015,06,07,13,45,23.90
2015,06,07,13,46,24.00
2015,06,07,13,47,24.20
2015,06,07,13,48,24.30
2015,06,07,13,49,24.40
2015,06,07,13,50,24.40
2015,06,07,13,51,24.40
2015,06,07,13,52,24.40
2015,06,07,13,53,24.40
2015,06,07,13,54,24.40
2015,06,07,13,55,24.30
2015,06,07,13,56,24.30
2015,06,07,13,57,24.30
2015,06,07,13,58,24.30
2015,06,07,13,59,24.20
2015,06,07,14,00,24.10
2015,06,07,14,01,24.00
2015,06,07,14,02,24.00
2015,06,07,14,03,23.90
2015,06,07,14,04,23.70
2015,06,07,14,05,23.70
2015,06,07,14,06,23.60
2015,06,07,14,07,23.50
2015,06,07,14,08,23.50
2015,06,07,14,09,23.50
2015,06,07,14,10,23.50
2015,06,07,14,11,23.40
2015,06,07,14,12,23.40
2015,06,07,14,13,23.40
2015,06,07,14,14,23.50
2015,06,07,14,15,23.60
2015,06,07,14,16,23.70
2015,06,07,14,17,23.70
2015,06,07,14,18,23.80
2015,06,07,14,19,23.80
2015,06,07,14,20,23.80
2015,06,07,14,21,23.80
2015,06,07,14,22,23.90
2015,06,07,14,23,23.90
2015,06,07,14,24,23.90
2015,06,07,14,25,23.90
2015,06,07,14,26,23.90
2015,06,07,14,27,24.00
2015,06,07,14,28,23.90
2015,06,07,14,29,24.00
2015,06,07,14,30,24.00
2015,06,07,14,31,24.10
2015,06,07,14,32,24.00
2015,06,07,14,33,23.90
2015,06,07,14,34,23.80
2015,06,07,14,35,23.80
2015,06,07,14,36,23.70
2015,06,07,14,37,23.70
2015,06,07,14,38,23.70
2015,06,07,14,39,23.70
2015,06,07,14,40,23.60
2015,06,07,14,41,23.60
2015,06,07,14,42,23.60
2015,06,07,14,43,23.60
2015,06,07,14,44,23.80
2015,06,07,14,45,23.90
2015,06,07,14,46,23.90
2015,06,07,14,47,24.00
2015,06,07,14,48,24.10
2015,06,07,14,49,24.20
2015,06,07,14,50,24.20
2015,06,07,14,51,24.30
2015,06,07,14,52,24.30
2015,06,07,14,53,24.20
2015,06,07,14,54,24.20
2015,06,07,14,55,24.20
2015,06,07,14,56,24.10
2015,06,07,14,57,24.10
2015,06,07,14,58,24.10
2015,06,07,14,59,24.10
2015,06,07,15,00,24.20
2015,06,07,15,01,24.20
2015,06,07,15,02,24.20
2015,06,07,15,03,24.10
2015,06,07,15,04,24.00
2015,06,07,15,05,23.90
2015,06,07,15,06,23.90
2015,06,07,15,07,23.90
2015,06,07,15,08,23.70
2015,06,07,15,09,23.50
2015,06,07,15,10,23.30
2015,06,07,15,11,23.20
2015,06,07,15,12,23.10
2015,06,07,15,13,23.10
2015,06,07,15,14,23.10
2015,06,07,15,15,23.10
2015,06,07,15,16,23.00
2015,06,07,15,17,22.90
2015,06,07,15,18,22.90
2015,06,07,15,19,22.80
2015,06,07,15,20,22.80
2015,06,07,15,21,22.70
2015,06,07,15,22,22.70
2015,06,07,15,23,22.70
2015,06,07,15,24,22.70
2015,06,07,15,25,22.80
2015,06,07,15,26,22.80
2015,06,07,15,27,22.80
2015,06,07,15,28,22.80
2015,06,07,15,29,22.90
2015,06,07,15,30,22.90
2015,06,07,15,31,22.80
2015,06,07,15,32,22.80
2015,06,07,15,33,22.80
2015,06,07,15,34,22.70
2015,06,07,15,35,22.80
2015,06,07,15,36,22.80
2015,06,07,15,37,23.00
2015,06,07,15,38,23.00
2015,06,07,15,39,23.20
2015,06,07,15,40,23.20
2015,06,07,15,41,23.30
2015,06,07,15,42,23.30
2015,06,07,15,43,23.30
2015,06,07,15,44,23.40
2015,06,07,15,45,23.40
2015,06,07,15,46,23.40
2015,06,07,15,47,23.40
2015,06,07,15,48,23.30
2015,06,07,15,49,23.20
2015,06,07,15,50,23.10
2015,06,07,15,51,23.10
2015,06,07,15,52,23.20
2015,06,07,15,53,23.10
2015,06,07,15,54,23.10
2015,06,07,15,55,23.10
2015,06,07,15,56,23.00
2015,06,07,15,57,23.00
2015,06,07,15,58,23.10
2015,06,07,15,59,23.10
2015,06,07,16,00,23.10
2015,06,07,16,01,23.10
2015,06,07,16,02,23.00
2015,06,07,16,03,23.00
2015,06,07,16,04,23.00
2015,06,07,16,05,23.00
2015,06,07,16,06,23.10
2015,06,07,16,07,23.20
2015,06,07,16,08,23.40
2015,06,07,16,09,23.40
2015,06,07,16,10,23.40
2015,06,07,16,11,23.40
2015,06,07,16,12,23.40
2015,06,07,16,13,23.40
2015,06,07,16,14,23.40
2015,06,07,16,15,23.50
2015,06,07,16,16,23.50
2015,06,07,16,17,23.40
2015,06,07,16,18,23.30
2015,06,07,16,19,23.30
2015,06,07,16,20,23.30
2015,06,07,16,21,23.20
2015,06,07,16,22,23.10
2015,06,07,16,23,23.10
2015,06,07,16,24,23.00
2015,06,07,16,25,22.90
2015,06,07,16,26,22.90
2015,06,07,16,27,22.80
2015,06,07,16,28,22.70
2015,06,07,16,29,22.50
2015,06,07,16,30,22.30
2015,06,07,16,31,22.20
2015,06,07,16,32,22.20
2015,06,07,16,33,22.00
2015,06,07,16,34,22.00
2015,06,07,16,35,22.10
2015,06,07,16,36,22.20
2015,06,07,16,37,22.20
2015,06,07,16,38,22.30
2015,06,07,16,39,22.30
2015,06,07,16,40,22.20
2015,06,07,16,41,22.20
2015,06,07,16,42,22.10
2015,06,07,16,43,22.10
2015,06,07,16,44,22.10
2015,06,07,16,45,22.10
2015,06,07,16,46,22.10
2015,06,07,16,47,22.00
2015,06,07,16,48,21.90
2015,06,07,16,49,21.90
2015,06,07,16,50,21.70
2015,06,07,16,51,21.60
2015,06,07,16,52,21.50
2015,06,07,16,53,21.50
2015,06,07,16,54,21.50
2015,06,07,16,55,21.50
2015,06,07,16,56,21.40
2015,06,07,16,57,21.30
2015,06,07,16,58,21.30
2015,06,07,16,59,21.20
2015,06,07,17,00,21.00
2015,06,07,17,01,20.90
2015,06,07,17,02,20.80
2015,06,07,17,03,20.80
2015,06,07,17,04,20.80
2015,06,07,17,05,20.80
2015,06,07,17,06,20.70
2015,06,07,17,07,20.60
2015,06,07,17,08,20.60
2015,06,07,17,09,20.50
2015,06,07,17,10,20.40
2015,06,07,17,11,20.20
2015,06,07,17,12,20.10
2015,06,07,17,13,20.00
2015,06,07,17,14,20.00
2015,06,07,17,15,20.00
2015,06,07,17,16,20.10
2015,06,07,17,17,20.20
2015,06,07,17,18,20.20
2015,06,07,17,19,20.10
2015,06,07,17,20,20.10
2015,06,07,17,21,20.10
2015,06,07,17,22,20.00
2015,06,07,17,23,19.80
2015,06,07,17,24,19.80
2015,06,07,17,25,19.70
2015,06,07,17,26,19.60
2015,06,07,17,27,19.50
2015,06,07,17,28,19.40
2015,06,07,17,29,19.30
2015,06,07,17,30,19.10
2015,06,07,17,31,18.90
2015,06,07,17,32,18.80
2015,06,07,17,33,18.70
2015,06,07,17,34,18.60